Regional Weather Roundup
Issued by NWS Sterling, VA

Home | Current Version | Previous Version | Text Only | Print | Product List | Glossary Off
Versions: 1 2 3 4 5 6 7 8 9 10 11 12 13 14 15 16 17 18 19 20 21 22 23 24 25 26 27 28 29 30 31 32 33 34 35 36 37 38 39 40 41 42 43 44 45 46 47 48 49 50

000
ASUS41 KLWX 220510
RWRLWX

REGIONAL WEATHER ROUNDUP
NATIONAL WEATHER SERVICE BALTIMORE MD/WASHINGTON DC
100 AM EDT FRI MAY 22 2015

Note: "FAIR" indicates few or no clouds below 12,000 feet
with no significant weather and/or obstructions to visibility.
 TC=TEMPERATURE CELSIUS

 * =Non NWS site. Station does not report precipitation (e.g. rain,
    snow, etc.), thunder, or fog.

DCZ001-MDZ009-015-VAZ040>042-051-053>054-220600-
WASHINGTON METRO

CITY           SKY/WX    TMP DP  RH WIND       PRES   REMARKS
WASHINGTON NAT PTCLDY    54  49  83 NW6       29.96S
DULLES         PTCLDY    53  49  86 NW15      29.98R
ANDREWS AFB    PTCLDY    51  50  96 W2        29.95R
FT BELVOIR     CLEAR     50  49  96 NW8       29.97R
QUANTICO       CLEAR     54  49  83 NW12      29.98R
COLLEGE PARK*  CLEAR     50  50 100 CALM      29.96R
LEESBURG*      MOCLDY    54  50  87 NW14G22   29.98F
GAITHERSBURG*  CLOUDY    50  46  87 W8        30.00R

$$

MDZ006>007-011-014-220600-
BALTIMORE METRO

CITY           SKY/WX    TMP DP  RH WIND       PRES   REMARKS
BWI AIRPORT    PTCLDY    50  47  89 CALM      29.95R
MD SCIENCE CTR   N/A     53  48  83 MISG      29.95R
MARTIN STATE   PTCLDY    50  48  93 CALM      29.96R
ANNAPOLIS      MOCLDY    51  47  86 W5        29.95R
FORT MEADE*    MOCLDY    45  45 100 CALM      29.98R

$$

MDZ012-015-019>023-220600-
MARYLAND EASTERN SHORE

CITY           SKY/WX    TMP DP  RH WIND       PRES   REMARKS
OCEAN CITY     CLOUDY    53  51  93 N12       29.90R FOG
SALISBURY      CLOUDY    51  50  96 NW10      29.92R
BAY BRIDGE AP*   N/A    N/A N/A N/A NW9       29.95R
CAMBRIDGE*     PTCLDY    52  48  87 N5        29.94S
EASTON*        CLEAR    N/A N/A N/A CALM      29.98S

$$

MDZ017>025-220600-
SOUTHERN MARYLAND

CITY           SKY/WX    TMP DP  RH WIND       PRES   REMARKS
PATUXENT RIVER PTCLDY    50  48  93 W9        29.95R
ST INIGOES     PTCLDY    51  49  92 VRB5      29.95S
LEONARDTOWN*   MOCLDY    48  46  93 CALM      29.98R

$$

MDZ003>005-220600-
NORTH CENTRAL MARYLAND

CITY           SKY/WX    TMP DP  RH WIND       PRES   REMARKS
FREDERICK*     CLOUDY    54  50  87 NW7       30.00S
HAGERSTOWN APT CLOUDY    52  47  83 NW6       29.98R
WESTMINSTER*   CLOUDY    52  48  87 W12       29.96R

$$

MDZ501>502-220600-
WESTERN MARYLAND

CITY           SKY/WX    TMP DP  RH WIND       PRES   REMARKS
OAKLAND*       CLOUDY    41 N/A N/A W8        30.04S FOG
CUMBERLAND*    CLEAR     52  43  71 NW3G20    30.07R

$$

VAZ025>031-220600-
SHENANDOAH VALLEY

CITY           SKY/WX    TMP DP  RH WIND       PRES   REMARKS
WINCHESTER*    CLEAR     52  43  71 W12       30.00S
FRONT ROYAL*   FAIR      50  45  81 W5        30.00S
LURAY*         MOCLDY    54  45  71 NW10G21   30.03R
NEW MARKET*    FAIR      50  45  81 CALM      30.03R
STAUNTON*      PTCLDY    53  45  75 NW7       30.05R
WAYNESBORO*    FAIR      50  46  85 N5        30.03R

$$

WVZ021-048>050-054>055-220600-
EASTERN WEST VIRGINIA PANHANDLE

CITY           SKY/WX    TMP DP  RH WIND       PRES   REMARKS
MARTINSBURG    CLEAR     52  45  77 W10       29.99S
PETERSBURG*    CLOUDY    49  44  83 W3        30.05F

$$

VAZ036>039-050-220600-
CENTRAL FOOTHILLS

CITY           SKY/WX    TMP DP  RH WIND       PRES   REMARKS
CHARLOTTESVILL MOCLDY    54  50  86 CALM      30.00R
CULPEPER*      PTCLDY    52  50  95 NW3       30.00S
ORANGE*        MOCLDY    54  52  94 W6        30.01R
GORDONSVILLE*  FAIR      51  50  96 CALM      30.00R
WARRENTON*     MOCLDY    54  51  90 NW7       29.98S

$$

VAZ055>057-220600-
NORTH AND CENTRAL PIEDMONT

CITY           SKY/WX    TMP DP  RH WIND       PRES   REMARKS
FREDERICKSBRG* CLEAR     55  55 100 NW5       29.97R
STAFFORD*      CLEAR     51  50  95 NW7       30.02R

$$

NCZ024-NYZ072-PAZ021-071-VAZ022-071-220600-
OTHER REGIONAL OBSERVATIONS

CITY           SKY/WX    TMP DP  RH WIND       PRES   REMARKS
NEW YORK CITY  CLOUDY    55  46  71 VRB3      29.90F
PHILADELPHIA   CLOUDY    54  47  77 W6        29.92S
PITTSBURGH     CLEAR     47  40  76 W6        30.04S
ROANOKE        PTCLDY    54  43  66 NW16      30.06R
RICHMOND       MOCLDY    54  51  90 NW6       29.98R
RALEIGH        PTCLDY    57  54  89 CALM      30.00R

$$

ANZ530>537-220600-
MARINE OBSERVATIONS

STATION/POSITION TIME  TEMP    WIND        PRES
                       AIR SEA DIR/SP/G
                 (UTC) (F)     (DEG/KT/KT) (MB)
THOMAS PT LIGHT  0500   53 65  290/  9/ 11 1014.8R
BALT KEY BRIDGE  0400   53     270/  9/ 10 1013.3S
LEWISETTA        0400   55 69              1013.7R
PINEY POINT      0400          350/ 13/ 14   N/A

$$



USA.gov is the U.S. government's official web portal to all federal, state and local government web resources and services.